COSMOS 209

导读 | 豆包AI

**COSMOS 209卫星摘要** COSMOS 209(宇宙209)是苏联(现归为CIS)于1968年3月22日发射的卫星,隶属于“宇宙”卫星系列。该系列是苏联规模最大的多功能卫星群,涵盖军事侦察、科学实验与技术验证等任务。作为冷战时期空间探索的产物,它为苏联早期航天技术积累提供了关键数据,推动了后续卫星技术发展,目前已完成任务并陨落。(120字)

基本信息
目录编号:
3158
目录名称:
COSMOS 209
国际标识:
1968-023A
轨道中心:
EARTH
卫星名称:
COSMOS 209
卫星全名:
--
卫星状态:
在轨 (已飞行21224 天)
发射日期:
1968-03-22 UTC
国别 :
俄罗斯(独联体) (CIS)
星等 :
--
轨道信息
数据来源 国际轨道数据 AOE轨道数据
星历时间 2026-05-01T04:04:03+0800
11小时前
查看轨道信息
2026-05-01T03:00:00+0800
12小时前
查看轨道信息
半长轴 7279.105km 7279.096km
偏心率 0.0050586 0.0050272
轨道倾角 65.332° 65.334°
近地点辐角 263.856° 264.156°
升交点赤经 318.675° 318.787°
平近点角 95.675° 231.589°
近地点 864.145km 864.365km
远地点 937.791km 937.553km
周期 103.009分钟 103.009分钟
每日圈数 13.979314 13.979338
详细信息
使用方式:
暂无
2D轨道图
3D轨道图
轨道高度分析图
轨道倾角分析图
轨道综合分析图
查看轨道综合分析图